Flag for U.S.A. Weather past 2 weeks in Warren, Michigan, U.S.A.

Now
66 °F

Sunny.


Feels Like: 66 °F
Forecast: 59 / 82 °F
Wind: 7 mph from Southeast

Location: Detroit City Airport

Current Time: May 28, 2015 at 11:01:08 PM

Latest Report: May 28, 2015 at 9:53 PM


Visibility: 10 mi

Pressure: 30.21 "Hg

Humidity: 61%

Dew point: 52 °F

Location of WarrenLocation

Historic Weather in Warren — Graph

°F

Warren temperature yesterday

Maximum temperature yesterday: 79 °F (at 1:00 PM)
Minimum temperature yesterday: 67 °F (at 6:53 AM)
Average temperature yesterday: 72 °F

Past Weeks' High & Low Weather Summary

 TemperatureHumidityPressure
High83 °F (May 18, 2:53 PM)97% (May 17, 8:04 AM)30.50 "Hg (May 17, 8:04 AM)
Low39 °F (May 14, 3:53 AM)22% (May 22, 6:53 PM)29.84 "Hg (May 26, 6:53 PM)
Average63 °F61%30.11 "Hg
* Reported May 13 8:53 PM — May 28 8:53 PM, Warren, Weather by CustomWeather, © 2015

Note: Actual official high and low records may vary slightly from our data, if they occured in-between our weather recording intervals... More about our weather records

Advertising

Warren weather history for previous 24 hours

 ConditionsComfort  
Time TempWeatherWind HumidityBarometerVisibility
8:53 PM
Thu, May 28
69 °FSunny.6 mph51%30.20 "Hg10 mi
7:53 PM72 °FSunny.6 mph46%30.21 "Hg10 mi
6:53 PM75 °FSunny.7 mph45%30.20 "Hg10 mi
5:53 PM76 °FSunny.7 mph43%30.22 "Hg10 mi
4:53 PM76 °FSunny.9 mph45%30.22 "Hg10 mi
3:53 PM76 °FSunny.8 mph52%30.23 "Hg10 mi
2:53 PM75 °FSunny.10 mph60%30.24 "Hg10 mi
1:53 PM75 °FPassing clouds.7 mph60%30.26 "Hg10 mi
12:53 PM74 °FSunny.7 mph57%30.26 "Hg10 mi
11:53 AM73 °FSunny.8 mph53%30.26 "Hg10 mi
10:53 AM71 °FSunny.7 mph57%30.24 "Hg10 mi
9:53 AM71 °FSunny.No wind55%30.24 "Hg10 mi
8:53 AM68 °FSunny.No wind65%30.22 "Hg10 mi
7:53 AM63 °FSunny.No wind84%30.22 "Hg10 mi
6:53 AM58 °FClear.No wind90%30.22 "Hg10 mi
5:53 AM56 °FClear.No wind90%30.19 "Hg10 mi
4:53 AM59 °FClear.No wind87%30.17 "Hg10 mi
3:53 AM59 °FClear.No wind87%30.15 "Hg10 mi
2:53 AM60 °FClear.No wind83%30.14 "Hg10 mi
1:53 AM65 °FClear.3 mph73%30.11 "Hg10 mi
12:53 AM66 °FClear.8 mph70%30.08 "Hg10 mi
11:53 PM
Wed, May 27
68 °FPassing clouds.7 mph65%30.07 "Hg10 mi
Weather by CustomWeather, © 2015

See weather overviewHow to use our weather pages